Regional Weather Roundup
Issued by NWS Cleveland, OH

Home | Current Version | Previous Version | Graphics & Text | Print | Product List | Glossary On
Versions: 1 2 3 4 5 6 7 8 9 10 11 12 13 14 15 16 17 18 19 20 21 22 23 24 25 26 27 28 29 30 31 32 33 34 35 36 37 38 39 40 41 42 43 44 45 46 47 48 49 50
000
ASUS41 KCLE 272310
RWRCLE
OHIO REGIONAL WEATHER ROUNDUP
NATIONAL WEATHER SERVICE WILMINGTON, OH
700 PM EDT WED JUL 27 2016

NOTE: "FAIR" INDICATES FEW OR NO CLOUDS BELOW 12,000 FEET WITH NO
SIGNIFICANT WEATHER AND/OR OBSTRUCTIONS TO VISIBILITY.

OHZ001>008-015>018-024>027-034-035-043-044-280000-
   NORTHWEST OHIO

CITY           SKY/WX    TMP DP  RH WIND       PRES   REMARKS
DEFIANCE       FAIR      90  58  33 CALM      29.92F
FINDLAY        FAIR      89  57  33 N6        29.92F
TOLEDO EXPRESS FAIR      87  64  46 NW6       29.93F
TOLEDO EXEC    PTSUNNY   87  65  47 E7        29.94S
LIMA           FAIR      84  69  60 NE3       29.94F
$$

OHZ009>014-019>023-028>033-038-089-280000-
   NORTHEAST OHIO

CITY           SKY/WX    TMP DP  RH WIND       PRES   REMARKS
CLE-HOPKINS    FAIR      86  56  35 N10       29.96F
CLE-LAKEFRONT  FAIR      82  67  60 NE7       29.93F
CUY CO. ARPT   SUNNY    N/A N/A N/A E7        29.96F
LORAIN-ELYRIA  FAIR      83  60  45 NE6       29.95S
ASHTABULA      FAIR      82  62  50 VRB5      29.97F
AKRON-CANTON   FAIR      89  56  32 NW3       29.95S
WOOSTER        FAIR      87  60  40 N7        29.94F
MANSFIELD      FAIR      88  57  34 W7        29.96F
YOUNGSTOWN     PTSUNNY   80  66  62 SE3       29.95F
$$

OHZ042-051>053-060>062-070>072-077>081-280000-
  SOUTHWEST OHIO

CITY           SKY/WX    TMP DP  RH WIND       PRES   REMARKS
CINC-COVINGTON PTSUNNY   86  71  60 SW5       29.95S HX  91
CINC-LUNKEN    FAIR      86  72  62 S9        29.93S HX  92
HAMILTON       FAIR      88  68  51 W6        29.94S HX  91
DAYTON         FAIR      87  64  46 W7        29.96S
WRIGHT-PAT AFB MOSUNNY   89  62  41 W7        29.93S
DAYTON GENERAL FAIR      88  63  43 NW8       29.94S
WILMINGTON     FAIR      86  72  62 S8        29.95R HX  92
$$

OHZ036-037-039>041-045>050-054>059-063>069-073>076-082>088-280000-
  CENTRAL AND SOUTHEAST OHIO

CITY           SKY/WX    TMP DP  RH WIND       PRES   REMARKS
COLUMBUS       FAIR      86  66  51 E5        29.92S
OSU AIRPORT    PTSUNNY   88  67  49 E7        29.93S HX  91
BOLTON FIELD   SUNNY     88  70  55 MISG        N/A  HX  92
RICKENBACK AFB FAIR      87  69  54 SW6       29.93R HX  91
NEWARK         FAIR      88  67  49 SW3       29.93S HX  91
MARION         FAIR      88  59  37 NW6       29.94F
LANCASTER      FAIR      87  71  58 W5        29.94S HX  93
ZANESVILLE     FAIR      90  66  45 W6        29.93S HX  92
NEW PHILLY     FAIR      91  57  31 W6        29.93S
$$




USA.gov is the U.S. government's official web portal to all federal, state and local government web resources and services.